Flag for Brazil Weather past 2 weeks in Eirunepé, Amazonas, Brazil

Now
73 °F

Passing clouds.


Feels Like: 68 °F
Forecast: 73 / 87 °F
Wind: No wind

Location: Leticia / Vasquez Cobo

Current Time: Apr 1, 2015 at 5:42:42 AM

Latest Report: Apr 1, 2015 at 5:00 AM


Visibility: N/A

Pressure: 29.89 "Hg

Humidity: 100%

Dew point: 73 °F

Location of EirunepéLocation

Historic Weather in Eirunepé — Graph

°F

Eirunepé temperature yesterday

Maximum temperature yesterday: 86 °F (at 3:00 PM)
Minimum temperature yesterday: 73 °F (at 12:00 AM)
Average temperature yesterday: 78 °F

Past Weeks' High & Low Weather Summary

 TemperatureHumidityPressure
High91 °F (Mar 24, 2:00 PM)100% (Mar 17, 5:00 AM)30.09 "Hg (Mar 17, 5:00 AM)
Low68 °F (Mar 19, 11:00 AM)67% (Mar 24, 2:00 PM)29.73 "Hg (Mar 18, 4:00 PM)
Average78 °F91%29.87 "Hg
* Reported Mar 17 4:00 AM — Apr 1 4:00 AM, Eirunepé, Weather by CustomWeather, © 2015

Note: Actual official high and low records may vary slightly from our data, if they occured in-between our weather recording intervals... More about our weather records

Advertising

Eirunepé weather history for previous 24 hours

 ConditionsComfort  
Time TempWeatherWind HumidityBarometerVisibility
4:00 AM
Wed, Apr 1
73 °FPassing clouds.No wind100%29.88 "HgN/A
3:00 AM73 °FClear.No wind100%29.84 "Hg10 mi
1:00 AM75 °FClear.No wind94%29.88 "Hg10 mi
11:00 PM
Tue, Mar 31
75 °FClear.No wind100%29.88 "Hg10 mi
10:00 PM75 °FClear.No wind100%29.88 "Hg10 mi
9:00 PM77 °FClear.No wind94%29.83 "Hg10 mi
8:00 PM77 °FClear.No wind100%29.80 "Hg10 mi
7:00 PM79 °FClear.No wind94%29.78 "Hg10 mi
6:00 PM81 °FClear.No wind89%29.77 "Hg10 mi
5:00 PM84 °FPassing clouds.No wind74%29.77 "HgN/A
4:00 PM86 °FScattered clouds.2 mph75%29.79 "HgN/A
3:00 PM86 °FBroken clouds.2 mph75%29.82 "HgN/A
2:00 PM84 °FBroken clouds.No wind79%29.86 "HgN/A
1:00 PM84 °FBroken clouds.No wind79%29.90 "HgN/A
12:00 PM84 °FBroken clouds.3 mph79%29.93 "HgN/A
11:00 AM82 °FPartly sunny.3 mph79%29.93 "HgN/A
10:00 AM79 °FPartly sunny.2 mph84%29.97 "HgN/A
9:00 AM77 °FPartly sunny.No wind94%29.96 "HgN/A
8:00 AM75 °FDrizzle. Partly sunny.No wind94%29.94 "HgN/A
7:00 AM73 °FBroken clouds.No wind100%29.90 "HgN/A
6:00 AM73 °FBroken clouds.No wind94%29.88 "HgN/A
5:00 AM73 °FPartly cloudy.No wind94%29.86 "HgN/A
Weather by CustomWeather, © 2015

See weather overviewHow to use our weather pages